Terminal Aerodrome Forecast
Issued by NWS

Current Version | Previous Version | Graphics & Text | Print | Product List | Glossary On
Versions: 1 2 3 4 5 6 7 8 9 10 11 12 13 14 15 16 17 18 19 20 21 22
000
FTUS41 KRLX 181100
TAFCKB
TAF
KCKB 181140Z 1812/1912 00000KT 1/4SM FG VV001
     FM181300 00000KT 2SM BR BKN003
     FM181330 00000KT 4SM BR SCT030
     FM181500 00000KT P6SM SCT050
     FM182200 VRB03KT P6SM SCT140=

USA.gov is the U.S. government's official web portal to all federal, state and local government web resources and services.